User: anonymous   Login
Location: ???????????
(38.2661°N, 23.2350°E)
Time: 03:12:32
(UTC+00:00)
Language:

Cosmos 1340 Rocket - Orbit

View from above orbital plane
View from above orbital plane
View from above satellite
View from above satellite

Ground track
Ground track

The orbit data is extracted from the following two-line orbital elements,

1 13068U 82013B   24062.61870672  .00003269  00000-0  18423-3 0  9994
2 13068  81.1758 298.7595 0027264 128.5485 231.8191 15.12612879292560
Epoch (UTC): 02 March 2024 14:50:56
Eccentricity: 0.0027264
inclination: 81.1758°
perigee height: 509 km
apogee height: 547 km
right ascension of ascending node: 298.7595°
argument of perigee: 128.5485°
revolutions per day: 15.12612879
mean anomaly at epoch: 231.8191°
orbit number at epoch: 29256

The dashed part of the orbit path shows where the satellite is in the earth's shadow,  

DLR